カタログに戻る

LEMUR 2 LLOYD

運用中気象SSO
NORAD 60577·PAYLOAD·🇺🇸 United States

打ち上げ Aug 16, 2024 から Vandenberg Space Force Base

Loading…

次のパス (今後24時間)

TLE

最新Source: Space-Track

元期: Sep 14, 2026, 04:06 UTC

1 60577U 24149DP  26257.17111927  .00007564  00000-0  46048-3 0  9993
2 60577  97.6699 338.4197 0003491 184.2880 175.8320 15.10695454113827

AllMySatでLEMUR 2 LLOYDをリアルタイム追跡

Download on the App Store